Location: Forestville
(38.4740°N, 122.8890°W)
Time: 14:42:42
(UTC-07:00)

Amateur Radio Satellites - All Passes

Search period start: 22 October 2014 14:12
Search period end: 23 October 2014 14:12
Location: Forestville, 38.4740°N, 122.8890°W

Satellite Date Start Highest point End Downlink Frequencies (MHz)
Time Altitude Azimuth
TMSAT-1 22 Oct 14:12:51 14:16:31 19° 64° (ENE) 14:20:11 436.925 FM
JAS-1B 22 Oct 14:15:31 14:21:43 85° 256° (WSW) 14:27:26 435.800 - 435.900 CW/SSB
Sapphire 22 Oct 14:24:22 14:29:50 89° 243° (WSW) 14:35:15 437.095 MHz 1200 baud AX-25 AFSK
Oscar 19 22 Oct 14:27:26 14:32:24 48° 260° (W) 14:37:23 437.125 CW, 437.150 USB
AO-7 22 Oct 14:31:36 14:36:02 16° 50° (NE) 14:40:28 29.400 - 29.500 MHz
AO-27 22 Oct 14:38:20 14:43:33 89° 76° (ENE) 14:48:48 436.795 MHz FM
PCSat 22 Oct 14:47:22 14:52:38 52° 247° (WSW) 14:57:51 145.825 MHz
KITSAT 1 22 Oct 14:49:13 14:56:13 32° 314° (NW) 15:03:16 435.175 FM
ISS 22 Oct 14:54:48 14:57:48 31° 329° (NNW) 15:00:50 145.800 FM
UOSAT-12 22 Oct 15:08:02 15:12:17 37° 114° (ESE) 15:16:36 437.025 FM, 437.400 FM
SO-50 22 Oct 15:11:51 15:15:24 22° 313° (NW) 15:19:02 436.795 FM
Oscar 16 22 Oct 15:14:46 15:18:04 17° 268° (W) 15:21:23 437.025 USB, Beacon 2401.1428
Uribyol 2 22 Oct 15:28:17 15:32:48 30° 264° (W) 15:37:21 436.500 FM
AO-Echo 22 Oct 15:29:25 15:33:13 23° 266° (W) 15:37:07 ?
ITAMSAT 1 22 Oct 15:33:47 15:38:12 28° 264° (W) 15:42:40 435.822 SSB
Uosat F 22 Oct 15:34:18 15:37:19 16° 63° (ENE) 15:40:22 435.120 FM
Gurwin Techsat 1B 22 Oct 15:37:59 15:43:07 51° 260° (W) 15:48:17 435.225 FM
TMSAT-1 22 Oct 15:50:51 15:56:00 52° 260° (W) 16:01:11 436.925 FM
Sapphire 22 Oct 16:12:05 16:12:23 10° 259° (W) 16:12:41 437.095 MHz 1200 baud AX-25 AFSK
AO-7 22 Oct 16:19:11 16:27:25 73° 69° (ENE) 16:35:40 29.400 - 29.500 MHz
ISS 22 Oct 16:34:42 16:35:21 10° 348° (NNW) 16:35:59 145.800 FM
UOSAT-12 22 Oct 16:48:38 16:52:31 25° 312° (NW) 16:56:27 437.025 FM, 437.400 FM
JAS-2 22 Oct 16:54:56 16:59:43 26° 63° (ENE) 17:04:58 435.800 - 435.900 CW/SSB, 435.910 FM
Saudisat 1A 22 Oct 16:56:59 17:00:57 32° 51° (NE) 17:04:55 436.775 MHz
OPAL 22 Oct 17:09:32 17:10:42 11° 92° (E) 17:11:51 ?
Uosat F 22 Oct 17:10:40 17:15:36 58° 259° (W) 17:20:34 435.120 FM
AO-7 22 Oct 18:14:47 18:20:50 22° 266° (W) 18:26:55 29.400 - 29.500 MHz
Hamsat 22 Oct 18:20:58 18:25:11 80° 258° (WSW) 18:29:24 145.90 MHz
Saudisat 1A 22 Oct 18:36:45 18:40:23 25° 248° (WSW) 18:44:00 436.775 MHz
JAS-2 22 Oct 18:38:56 18:44:24 45° 263° (W) 18:50:35 435.800 - 435.900 CW/SSB, 435.910 FM
OPAL 22 Oct 18:45:07 18:50:05 75° 287° (WNW) 18:55:00 ?
STRAND 1 22 Oct 18:48:46 18:51:15 14° 91° (E) 18:53:44 ?
AO-40 22 Oct 19:37:07 01:12:10 43° 150° (SSE) 02:48:39 Beacon 2401.320
SO-67 22 Oct 19:38:59 19:42:24 74° 259° (W) 19:45:51 435.3500 MHz FM
HO-68 22 Oct 19:40:46 19:45:15 18° 56° (NE) 19:49:44 435.675 MHz FM
ISS 22 Oct 19:48:05 19:50:58 26° 29° (NNE) 19:53:50 145.800 FM
STRAND 1 22 Oct 20:25:45 20:30:52 65° 286° (WNW) 20:35:57 ?
KITSAT 1 22 Oct 20:47:41 20:54:13 26° 43° (NE) 21:00:43 435.175 FM
UKube-1 22 Oct 21:20:40 21:24:22 28° 69° (ENE) 21:28:05 145.840 MHz, 145.915 MHz
ISS 22 Oct 21:24:37 21:27:42 36° 225° (SW) 21:30:47 145.800 FM
HO-68 22 Oct 21:24:51 21:32:01 86° 254° (WSW) 21:39:15 435.675 MHz FM
FUNcube-1 22 Oct 21:56:16 22:00:04 26° 69° (ENE) 22:03:50 145.950 - 145.970 MHz USB
RS-15 22 Oct 21:56:23 22:06:04 37° 107° (ESE) 22:15:37 29.354 - 29.394 USB, Beacon 29.352 USB
SO-50 22 Oct 22:03:19 22:07:33 29° 50° (NE) 22:11:48 436.795 FM
Oscar 11 22 Oct 22:03:32 22:07:51 74° 76° (ENE) 22:12:11 145.825 FM, Beacon 2401.500 USB
KITSAT 1 22 Oct 22:42:23 22:50:28 79° 244° (WSW) 22:58:30 435.175 FM
ZACube-1 22 Oct 22:46:15 22:50:52 89° 257° (WSW) 22:55:27 437.345 MHz
UKube-1 22 Oct 22:57:01 23:00:30 24° 264° (W) 23:04:02 145.840 MHz, 145.915 MHz
HO-68 22 Oct 23:17:26 23:20:36 13° 271° (W) 23:23:48 435.675 MHz FM
FUNcube-1 22 Oct 23:32:21 23:36:19 28° 264° (W) 23:40:15 145.950 - 145.970 MHz USB
UOSAT-12 22 Oct 23:39:09 23:43:01 24° 48° (NE) 23:46:49 437.025 FM, 437.400 FM
SO-50 22 Oct 23:43:44 23:48:08 34° 246° (WSW) 23:52:31 436.795 FM
RS-15 23 Oct 00:07:01 00:17:49 60° 307° (NW) 00:28:38 29.354 - 29.394 USB, Beacon 29.352 USB
Oscar 10/S400 23 Oct 00:27:31 01:35:01 33° 232° (SW) 05:48:01 145.825 - 145.975 CW/USB, Beacon 145.810 USB
MaSat-1 23 Oct 00:37:51 00:42:08 87° 114° (ESE) 00:46:02 437.345 MHz
KITSAT 1 23 Oct 00:41:06 00:44:33 13° 261° (W) 00:48:00 435.175 FM
UOSAT-12 23 Oct 01:18:54 01:23:17 40° 245° (WSW) 01:27:35 437.025 FM, 437.400 FM
Oscar 16 23 Oct 01:47:29 01:51:16 21° 94° (E) 01:55:02 437.025 USB, Beacon 2401.1428
JAS-1B 23 Oct 01:59:34 02:05:24 29° 98° (E) 02:12:05 435.800 - 435.900 CW/SSB
AO-Echo 23 Oct 01:59:50 02:02:37 14° 91° (E) 02:05:24 ?
Uribyol 2 23 Oct 02:05:04 02:06:55 12° 90° (E) 02:08:46 436.500 FM
ITAMSAT 1 23 Oct 02:10:13 02:12:27 13° 91° (E) 02:14:41 435.822 SSB
RS-15 23 Oct 02:25:29 02:33:10 21° 337° (NNW) 02:40:57 29.354 - 29.394 USB, Beacon 29.352 USB
Oscar 19 23 Oct 02:40:17 02:45:23 68° 102° (ESE) 02:50:28 437.125 CW, 437.150 USB
AO-27 23 Oct 02:53:13 02:58:01 36° 98° (E) 03:02:46 436.795 MHz FM
Sapphire 23 Oct 03:24:26 03:27:08 14° 103° (ESE) 03:29:51 437.095 MHz 1200 baud AX-25 AFSK
Oscar 16 23 Oct 03:25:57 03:30:46 43° 289° (WNW) 03:35:34 437.025 USB, Beacon 2401.1428
AO-Echo 23 Oct 03:36:31 03:41:47 66° 286° (WNW) 03:47:02 ?
Uribyol 2 23 Oct 03:41:41 03:46:54 74° 286° (WNW) 03:52:04 436.500 FM
PCSat 23 Oct 03:45:19 03:49:38 25° 107° (ESE) 03:53:59 145.825 MHz
ITAMSAT 1 23 Oct 03:47:13 03:52:26 70° 286° (WNW) 03:57:36 435.822 SSB
JAS-1B 23 Oct 03:49:47 03:56:03 48° 289° (WNW) 04:03:29 435.800 - 435.900 CW/SSB
Gurwin Techsat 1B 23 Oct 03:55:28 04:00:48 74° 102° (ESE) 04:06:06 435.225 FM
TMSAT-1 23 Oct 04:08:00 04:13:19 71° 102° (ESE) 04:18:35 436.925 FM
Oscar 19 23 Oct 04:21:30 04:24:08 14° 298° (WNW) 04:26:46 437.125 CW, 437.150 USB
OPAL 23 Oct 04:21:33 04:25:12 20° 63° (ENE) 04:28:51 ?
AO-7 23 Oct 04:23:21 04:29:59 26° 95° (E) 04:36:35 29.400 - 29.500 MHz
AO-27 23 Oct 04:33:02 04:37:20 27° 293° (WNW) 04:41:37 436.795 MHz FM
RS-15 23 Oct 04:44:45 04:51:37 18° 14° (NNE) 04:58:35 29.354 - 29.394 USB, Beacon 29.352 USB
Sapphire 23 Oct 05:04:30 05:09:53 71° 299° (WNW) 05:15:19 437.095 MHz 1200 baud AX-25 AFSK
Uosat F 23 Oct 05:19:50 05:24:44 48° 100° (E) 05:29:35 435.120 FM
PCSat 23 Oct 05:27:40 05:32:46 42° 304° (NW) 05:37:56 145.825 MHz
Gurwin Techsat 1B 23 Oct 05:37:27 05:40:06 14° 299° (WNW) 05:42:46 435.225 FM
JAS-2 23 Oct 05:48:43 05:55:36 33° 94° (E) 06:02:26 435.800 - 435.900 CW/SSB, 435.910 FM
TMSAT-1 23 Oct 05:49:49 05:52:35 15° 298° (WNW) 05:55:21 436.925 FM
OPAL 23 Oct 05:58:43 06:03:43 49° 258° (WSW) 06:08:41 ?
STRAND 1 23 Oct 06:03:07 06:06:33 18° 64° (ENE) 06:09:59 ?
Hamsat 23 Oct 06:08:51 06:11:54 19° 94° (E) 06:14:56 145.90 MHz
AO-7 23 Oct 06:15:03 06:23:15 66° 292° (WNW) 06:31:27 29.400 - 29.500 MHz
Sapphire 23 Oct 06:52:19 06:54:18 12° 319° (NW) 06:56:18 437.095 MHz 1200 baud AX-25 AFSK
RS-15 23 Oct 06:57:34 07:08:04 44° 46° (NE) 07:18:55 29.354 - 29.394 USB, Beacon 29.352 USB
Uosat F 23 Oct 06:59:38 07:03:07 19° 296° (WNW) 07:06:36 435.120 FM
Saudisat 1A 23 Oct 07:05:24 07:06:14 11° 107° (ESE) 07:07:05 436.775 MHz
JAS-2 23 Oct 07:33:16 07:40:42 52° 290° (WNW) 07:48:11 435.800 - 435.900 CW/SSB, 435.910 FM
STRAND 1 23 Oct 07:40:19 07:45:17 52° 260° (W) 07:50:19 ?
Hamsat 23 Oct 07:44:10 07:47:52 31° 289° (WNW) 07:51:35 145.90 MHz
AO-7 23 Oct 08:10:42 08:14:27 14° 312° (NW) 08:18:12 29.400 - 29.500 MHz
SO-67 23 Oct 08:36:31 08:39:52 48° 285° (WNW) 08:43:11 435.3500 MHz FM
Saudisat 1A 23 Oct 08:40:49 08:45:11 70° 302° (WNW) 08:49:35 436.775 MHz
PANSAT 23 Oct 08:47:10 08:49:10 14° 168° (SSE) 08:51:10 not established
HO-68 23 Oct 08:55:46 09:00:38 19° 92° (E) 09:05:27 435.675 MHz FM
RS-15 23 Oct 09:09:56 09:20:46 58° 248° (WSW) 09:32:06 29.354 - 29.394 USB, Beacon 29.352 USB
Oscar 11 23 Oct 09:54:04 09:56:30 15° 92° (E) 09:58:57 145.825 FM, Beacon 2401.500 USB
PANSAT 23 Oct 10:26:00 10:28:41 18° 181° (S) 10:31:21 not established
MaSat-1 23 Oct 10:26:01 10:28:35 58° 248° (WSW) 10:30:56 437.345 MHz
ZACube-1 23 Oct 10:38:11 10:41:12 19° 93° (E) 10:44:11 437.345 MHz
HO-68 23 Oct 10:41:44 10:48:55 73° 289° (WNW) 10:56:03 435.675 MHz FM
UKube-1 23 Oct 10:45:34 10:49:55 63° 102° (ESE) 10:54:14 145.840 MHz, 145.915 MHz
Oscar 10/S400 23 Oct 10:51:07 11:11:21 18° 155° (SSE) 11:23:33 145.825 - 145.975 CW/USB, Beacon 145.810 USB
KITSAT 1 23 Oct 11:17:24 11:22:04 17° 101° (E) 11:26:43 435.175 FM
FUNcube-1 23 Oct 11:22:24 11:26:38 62° 101° (E) 11:30:46 145.950 - 145.970 MHz USB
Oscar 11 23 Oct 11:28:48 11:32:53 43° 287° (WNW) 11:36:56 145.825 FM, Beacon 2401.500 USB
PANSAT 23 Oct 12:06:22 12:08:11 13° 193° (SSW) 12:09:59 not established
Sapphire 23 Oct 12:13:11 12:14:53 11° 41° (NE) 12:16:35 437.095 MHz 1200 baud AX-25 AFSK
ZACube-1 23 Oct 12:13:52 12:17:41 32° 289° (WNW) 12:21:24 437.345 MHz
SO-50 23 Oct 12:20:25 12:21:21 11° 106° (ESE) 12:22:17 436.795 FM
UKube-1 23 Oct 12:24:00 12:25:32 12° 297° (WNW) 12:27:04 145.840 MHz, 145.915 MHz
ISS 23 Oct 12:30:14 12:32:14 15° 129° (SE) 12:34:15 145.800 FM
HO-68 23 Oct 12:32:13 12:35:23 14° 307° (NW) 12:38:33 435.675 MHz FM
PCSat 23 Oct 12:34:31 12:38:07 18° 46° (NE) 12:41:42 145.825 MHz
JAS-1B 23 Oct 12:46:43 12:50:28 18° 62° (ENE) 12:54:07 435.800 - 435.900 CW/SSB
FUNcube-1 23 Oct 13:01:23 13:02:26 11° 297° (WNW) 13:03:28 145.950 - 145.970 MHz USB
Oscar 16 23 Oct 13:02:59 13:07:16 27° 67° (ENE) 13:11:33 437.025 USB, Beacon 2401.1428
KITSAT 1 23 Oct 13:08:15 13:16:20 90° 298° (WNW) 13:24:28 435.175 FM
AO-Echo 23 Oct 13:11:50 13:14:39 15° 63° (ENE) 13:17:31 ?
Uribyol 2 23 Oct 13:20:57 13:24:18 18° 63° (ENE) 13:27:39 436.500 FM
ITAMSAT 1 23 Oct 13:26:26 13:29:55 19° 63° (ENE) 13:33:25 435.822 SSB
Gurwin Techsat 1B 23 Oct 13:39:06 13:41:13 12° 60° (ENE) 13:43:20 435.225 FM
TMSAT-1 23 Oct 13:51:35 13:53:27 12° 60° (ENE) 13:55:18 436.925 FM
Sapphire 23 Oct 13:53:56 13:59:22 67° 60° (ENE) 14:04:44 437.095 MHz 1200 baud AX-25 AFSK
Oscar 19 23 Oct 13:55:38 14:00:47 84° 76° (ENE) 14:05:58 437.125 CW, 437.150 USB
SO-50 23 Oct 13:56:44 14:01:12 72° 303° (WNW) 14:05:49 436.795 FM
ISS 23 Oct 14:05:22 14:08:37 51° 324° (NW) 14:11:54 145.800 FM
